Location: Aldenham
(51.6667°N, 0.3500°W)
Time: 19:21:38
(UTC+00:00)

Daily predictions for brighter satellites

Satellite Brightness Start Highest point End
(mag) Time Altitude Azimuth Time Altitude Azimuth Time Altitude Azimuth
Cosmos 2084 Rocket 3.5 16:35:01 10° SW 16:39:10 70° SE 16:43:21 10° NE
SMAP 3.4 16:38:34 10° SE 16:42:59 45° ENE 16:47:26 10° N
Cosmos 540 Rocket 3.8 16:38:21 10° NNW 16:43:17 44° ENE 16:48:10 10° SE
Cosmos 2297 Rocket 4.3 16:45:09 10° NNW 16:46:32 11° N 16:47:55 10° N
Cosmos 1869 4.3 16:45:32 10° SE 16:48:12 20° E 16:50:51 10° NE
SWARM A 4.2 16:44:52 10° N 16:48:12 80° E 16:51:31 10° S
YAOGAN 1 4.2 16:47:33 10° E 16:49:53 15° NE 16:52:13 10° NNE
IGS 5A 3.3 16:46:05 10° SSE 16:50:01 70° ENE 16:54:00 10° N
Cosmos 1763 Rocket 3.5 16:46:37 10° NNW 16:51:48 58° ENE 16:56:53 10° SE
SL-16 R/B 2.6 16:46:11 10° NNE 16:52:29 75° ESE 16:58:43 10° S
Landsat 7 4.1 16:50:46 10° SE 16:55:09 43° ENE 16:59:34 10° N
Cosmos 1340 Rocket 4.3 16:52:38 10° SW 16:56:12 35° WNW 16:59:46 10° N
Timation 1 Rocket 4.3 16:51:23 10° NNW 16:57:21 66° NE 17:03:17 10° SE
RESURS DK-1 2.3 16:53:30 10° NNW 16:57:30 62° NE 17:01:28 10° SE
Cosmos 1140 Rocket 3.5 16:54:38 10° S 16:59:44 65° ESE 17:04:51 10° NNE
CZ-4C R/B 2.9 16:56:01 10° W 17:00:31 42° NNW 17:06:18 10° NE
Aureole 3 Rocket 3.9 16:59:13 10° SE 17:01:17 17° E 17:03:29 10° NE
UNK 3.9 17:00:53 10° NNE 17:05:25 52° E 17:09:55 10° S
Meteor 1-28 Rocket 2.8 17:02:13 10° NNE 17:05:37 84° ESE 17:08:59 10° SSW
Meteor 2-12 Rocket 4.5 17:02:19 10° N 17:08:22 60° ENE 17:14:21 10° SSE
Cosmos 1400 Rocket 4.4 17:08:47 10° ESE 17:10:44 14° E 17:11:08 13° E
Cosmos 1536 Rocket 4.5 17:07:11 10° N 17:10:58 26° ENE 17:14:41 10° SE
SJ-12 3.8 17:07:44 10° SSE 17:11:26 53° ENE 17:15:10 10° N
Okean 2 Rocket 4.4 17:15:09 10° SE 17:18:08 18° E 17:20:03 14° NE
Cosmos 1269 Rocket 4.1 17:14:05 10° SSW 17:19:21 82° WNW 17:24:40 10° NNE
CORIOLIS 4.2 17:15:45 10° SSE 17:21:07 84° WSW 17:26:31 10° NNW
IRS-1C 4.1 17:17:17 10° SSE 17:22:37 82° ENE 17:27:58 10° NNW
ATLAS CENTAUR R/B 3.0 17:22:09 10° WNW 17:24:47 20° NNW 17:27:24 10° NNE
SL-12 R/B(2) 4.5 17:18:35 10° SSW 17:26:24 60° ESE 17:35:47 11° NE
COSMO-SKYMED 1 3.8 17:26:49 18° E 17:27:12 18° E 17:30:04 10° SE
Resurs 01 Rocket 3.3 17:30:11 15° NE 17:30:11 15° NE 17:32:17 10° NNE
Thor Agena Rocket 4.4 17:24:42 10° S 17:29:52 57° WSW 17:35:05 10° NNW
Cosmos 1943 Rocket 2.3 17:24:44 10° S 17:30:10 54° ESE 17:35:17 12° NE
Cosmos 1782 Rocket 4.1 17:26:56 10° SSW 17:31:20 63° WNW 17:35:44 10° N
Timation 2 Rocket 4.3 17:24:45 10° SSW 17:31:30 62° ESE 17:38:14 10° NE
Cosmos 841 Rocket 3.9 17:27:30 10° NNW 17:32:28 39° NE 17:37:23 10° SE
Cosmos 2058 2.9 17:29:14 10° N 17:33:07 50° ENE 17:37:00 10° SSE
Cosmos 2233 Rocket 4.3 17:26:57 10° SSW 17:33:15 75° WNW 17:39:37 10° N
Cosmos 1300 Rocket 4.3 17:29:29 10° SSW 17:33:47 54° WNW 17:38:06 10° N
Cosmos 2251 Rocket 4.0 17:29:27 10° S 17:34:21 40° ESE 17:38:36 14° NE
Cosmos 2227 Rocket 4.4 17:34:00 10° NNW 17:35:11 11° N 17:36:22 10° N
BREEZE-M DEB (TANK) 3.0 17:34:34 10° SW 17:36:59 40° SSE 17:39:49 20° E
Cosmos 2082 Rocket 2.1 17:32:02 10° NNW 17:37:42 76° ENE 17:43:18 10° SE
ATLAS 2AS CENTAUR R/B 3.2 17:31:36 10° NW 17:37:59 40° NNE 17:42:14 20° E
Cosmos 1346 Rocket 4.0 17:36:36 10° NNE 17:38:39 20° NE 17:38:39 20° NE
Cosmos 2061 Rocket 4.3 17:34:41 10° SSW 17:40:58 73° WNW 17:47:13 10° N
Cosmos 2278 Rocket 2.2 17:38:03 10° SSW 17:43:38 64° ESE 17:48:32 14° NE
IRAS Rocket 4.3 17:38:54 10° SE 17:44:15 52° ENE 17:49:37 10° N
Cosmos 1602 2.9 17:41:24 10° N 17:44:28 68° E 17:47:30 10° SSE
MOS 1 Rocket 3.0 17:41:57 10° SSE 17:46:17 75° ENE 17:50:52 10° N
Cosmos 468 Rocket 3.9 17:41:42 10° NNW 17:46:57 86° ENE 17:52:07 10° SSE
Cosmos 1975 Rocket 4.2 17:42:48 10° NNW 17:46:58 46° W 17:51:08 10° SSW
AQUARIUS 4.2 17:45:10 10° S 17:49:35 78° WSW 17:54:01 10° NNW
Cosmos 1464 Rocket 4.1 17:44:34 10° SSE 17:50:36 52° E 17:56:37 10° NNE
ARIANE 5 R/B 3.1 17:46:26 10° S 17:51:19 59° WSW 17:56:18 10° NNW
CZ-2D R/B 3.4 17:47:59 10° SSE 17:52:05 60° ENE 17:56:15 10° N
Cosmos 1862 2.9 17:51:59 10° N 17:55:35 63° ENE 17:59:11 10° SSE
USA 215 4.1 17:49:39 10° SE 17:56:00 51° SW 18:02:21 10° WNW
PSLV R/B 3.5 17:54:00 10° SE 17:57:53 49° ENE 18:01:47 10° N
ARIANE 6 FM1 Upper Stage 4.4 17:55:49 10° NW 17:58:41 19° N 17:59:56 16° NNE
Geosat FO 4.1 17:57:42 15° SSE 17:59:58 74° WSW 18:02:52 10° NW
Cosmos 2151 Rocket 3.6 17:56:43 10° S 18:01:06 55° E 18:05:04 13° NNE
Cosmos 2263 Rocket 4.5 18:00:01 10° NNW 18:01:13 11° N 18:02:24 10° N
Cosmos 1190 Rocket 4.1 17:56:55 10° S 18:02:05 56° ESE 18:05:26 22° NE
ISS -3.6 18:00:01 10° WSW 18:03:20 60° SSE 18:03:51 51° ESE
Cosmos 2034 Rocket 4.2 17:58:46 10° SSE 18:04:36 45° E 18:10:31 10° NNE
Cosmos 1812 2.1 18:02:22 10° SSW 18:05:15 73° W 18:06:21 34° N
Cosmos 676 Rocket 4.5 18:00:24 10° S 18:05:16 39° ESE 18:06:43 32° ENE
SKYMED 2 3.5 18:03:51 18° NNE 18:07:02 59° E 18:11:19 10° S
Okean 1 Rocket 3.3 18:03:39 10° SSE 18:07:48 42° E 18:08:25 40° ENE
Cosmos 1656 Rocket 4.4 18:03:11 10° SSE 18:07:56 30° ESE 18:07:59 30° ESE
Cosmos 220 Rocket 4.1 18:07:18 10° NNW 18:11:16 44° ENE 18:11:16 44° ENE
Cosmos 407 Rocket 3.8 18:07:20 10° SW 18:12:29 65° WNW 18:17:08 13° NNE
COSMOS 2406 3.1 18:07:39 10° NNW 18:13:23 79° ENE 18:19:02 10° SE
Sich 1 Rocket 3.8 18:09:10 10° SSE 18:13:32 50° E 18:14:56 36° NE
USA 281 3.7 18:11:29 30° E 18:13:53 40° NE 18:19:55 10° NNW
Cosmos 1954 Rocket 4.0 18:09:21 10° S 18:14:29 58° ESE 18:16:53 31° NE
Cosmos 1092 Rocket 4.1 18:09:25 10° N 18:15:29 48° ENE 18:21:26 10° SSE
SL-19 R/B 4.0 18:14:14 10° SSE 18:19:26 82° ENE 18:24:43 10° NNW
Cosmos 2026 Rocket 3.9 18:14:32 10° N 18:20:32 57° ENE 18:26:35 10° SSE
SJ 16-02 1.1 18:19:25 10° SSW 18:23:41 70° ESE 18:24:29 55° NE
Cosmos 1072 Rocket 4.4 18:18:10 10° S 18:24:18 89° W 18:30:27 10° N
Cosmos 44 Rocket 3.3 18:19:30 10° SW 18:24:20 83° NW 18:26:14 38° NE
YAOGAN 1 2.4 18:20:52 10° SSE 18:25:08 87° WSW 18:29:26 10° NNW
SPOT 1/Viking Rocket 3.8 18:21:46 10° S 18:26:55 69° WSW 18:32:08 10° NNW
Cosmos 2344 3.8 18:23:26 10° NW 18:31:10 81° NE 18:38:34 21° SE
Cosmos 2297 Rocket 4.1 18:30:26 10° N 18:33:09 14° NNE 18:33:09 14° NNE
SL-16 R/B 4.4 18:30:23 10° N 18:35:32 28° NW 18:40:40 10° WSW
Meteor 2-3 Rocket 3.6 18:30:46 10° NNW 18:36:31 81° ENE 18:42:09 10° SSE
Spot 4 Rocket 4.4 18:32:36 10° S 18:37:40 65° WSW 18:42:45 10° NNW
Resurs 1-3 3.8 18:35:23 10° S 18:39:40 68° WSW 18:43:59 10° NNW
Nadezhda 4 Rocket 4.4 18:36:41 10° NNW 18:42:54 64° W 18:49:02 10° S
Cosmos 1400 Rocket 3.1 18:41:57 10° SSW 18:45:43 61° WNW 18:45:47 61° WNW
Cosmos 304 Rocket 3.6 18:43:46 10° SSW 18:48:30 89° ESE 18:48:47 80° NNE
CZ-4C R/B 3.7 18:45:37 10° WNW 18:50:17 28° N 18:51:49 25° NNE
Cosmos 371 Rocket 3.1 18:45:32 10° SSW 18:50:21 89° ESE 18:50:35 81° NNE
Cosmos 1627 Rocket 4.3 18:47:11 10° N 18:53:21 89° E 18:59:32 10° S
Okean 2 Rocket 3.6 18:51:21 10° SSW 18:55:40 57° WNW 18:57:21 34° NNW
COSMO-SKYMED 1 3.1 19:03:11 54° W 19:03:11 54° W 19:06:54 10° SSW
Resurs 01 Rocket 3.0 19:07:36 30° NNW 19:07:36 30° NNW 19:09:52 10° NNW
Geosat 4.2 19:05:27 54° S 19:06:23 66° WSW 19:11:23 10° NW
BREEZE-M DEB (TANK) 3.8 19:08:20 10° WSW 19:11:47 70° S 19:11:47 70° S
Cosmos 1943 Rocket 3.5 19:09:02 10° WSW 19:14:08 35° NW 19:16:47 23° N
Cosmos 2082 Rocket 4.5 19:17:00 10° NW 19:21:10 22° WSW 19:25:19 10° SSW
Cosmos 2227 Rocket 4.4 19:19:02 10° N 19:20:29 13° N 19:20:29 13° N
Cosmos 2278 Rocket 3.7 19:23:06 10° WSW 19:28:07 32° NW 19:30:23 24° N
ATLAS 2AS CENTAUR R/B 2.5 19:22:43 10° NW 19:29:31 83° SW 19:29:41 82° SSW
Cosmos 1634 Rocket 4.3 19:29:57 10° SSW 19:42:28 10° N 19:42:31 10° N
Cosmos 2369 Rocket 4.3 19:31:06 10° SSW 19:31:59 15° SSW 19:31:59 15° SSW
ISS -0.2 19:36:42 10° W 19:36:47 10° W 19:36:47 10° W
USA 281 3.6 19:58:22 60° WSW 19:58:22 60° WSW 20:04:42 10° NNW
SJ 16-02 4.0 19:59:11 10° W 20:01:03 17° WNW 20:01:03 17° WNW
CZ-4C R/B 4.4 20:34:27 10° NW 20:36:46 23° NNW 20:36:46 23° NNW
